Regional Weather Roundup
Issued by NWS

Home | Current Version | Previous Version | Text Only | Print | Product List | Glossary Off
Versions: 1 2 3 4 5 6 7 8 9 10 11 12 13 14 15 16 17 18 19 20 21 22 23 24 25 26 27 28 29 30 31 32 33 34 35 36 37 38 39 40 41 42 43 44 45 46 47 48 49 50

000
ASUS45 KABQ 270010
RWRNM
WEATHER ROUNDUP FOR NEW MEXICO
NATIONAL WEATHER SERVICE ALBUQUERQUE NM
500 PM MST MON JAN 26 2015

NOTE: "FAIR" MEANS FEW OR NO CLOUDS BELOW 12,000 FEET AGL WITH NO
       SIGNIFICANT WEATHER OR OBSTRUCTIONS TO VISION.

      THIS PRODUCT IS RELEASED AS TWO VERSIONS.  ONE VERSION NEAR
      THE TOP OF THE HOUR CONTAINING PRELIMINARY DATA FROM ALBUQUERQUE
      AND OTHER STATIONS.  A FINAL VERSION WITH ADDITIONAL DATA IS
      ISSUED ABOUT 10 MINUTES AFTER THE HOUR.

NMZ501-503-504-510>518-270100-
NORTHWEST PLATEAU/NORTHCENTRAL MOUNTAINS

CITY           SKY/WX    TMP DP  RH WIND       PRES   REMARKS
FARMINGTON     CLEAR     52  25  35 N5        30.28R
6HR MIN TEMP:  43; 6HR MAX TEMP:  58;

LOS ALAMOS     PTCLDY    52  24  33 CALM      30.38S
SANTA FE       MOCLDY    52  26  36 SW5       30.34R
6HR MIN TEMP:  46; 6HR MAX TEMP:  61;

TAOS           CLEAR     46  25  42 N7        30.36R
ANGEL FIRE     FAIR      42  28  59 NE3       30.41R

$$
NMZ402-403-502-505>509-270100-
WESTCENTRAL MOUNTAINS/SOUTHWEST MOUNTAINS

CITY           SKY/WX    TMP DP  RH WIND       PRES   REMARKS
GALLUP         CLEAR     52  27  38 N7        30.30S
6HR MIN TEMP:  45; 6HR MAX TEMP:  58;

GRANTS         PTCLDY    50  26  39 S7        30.35R
SILVER CITY    CLOUDY    54  23  30 S10       30.30R

$$
NMZ407-409-411-412-270100-
SOUTHERN DESERTS

CITY           SKY/WX    TMP DP  RH WIND       PRES   REMARKS
LORDSBURG      FAIR      57  27  30 SE17      30.24R
DEMING         CLOUDY    56  29  35 E7        30.27S
6HR MIN TEMP:  56; 6HR MAX TEMP:  59;

LAS CRUCES     CLOUDY    54  31  41 CALM      30.29R
HOLLOMAN AFB   MOCLDY    51  36  57 W6        30.27R
ALAMOGORDO     MOCLDY    55  32  41 NW6       30.28R
T OR C         MOCLDY    57  24  28 NE5       30.27S
6HR MIN TEMP:  49; 6HR MAX TEMP:  60;


$$
NMZ519>523-270100-
CENTRAL VALLEYS/CENTRAL HIGHLANDS

CITY           SKY/WX    TMP DP  RH WIND       PRES   REMARKS
ALBUQUERQUE    PTCLDY    56  26  31 CALM      30.32S
6HR MIN TEMP:  42; 6HR MAX TEMP:  58;

DOUBLE EAGLE   PTCLDY    54  25  32 VRB5      30.34R
MORIARTY ARPT  FAIR      57  26  29 SE9       30.35S
6HR MIN TEMP:  52; 6HR MAX TEMP:  62;

CLINES CORNERS MOCLDY    51  27  39 SE9       30.35S
6HR MIN TEMP:  51; 6HR MAX TEMP:  55;

BELEN          FAIR      51  28  40 NE6       30.31S
6HR MIN TEMP:  45; 6HR MAX TEMP:  57;

SOCORRO        FAIR      55  28  34 CALM      30.30R
6HR MIN TEMP:  46; 6HR MAX TEMP:  60;


$$
NMZ524>526-539-540-270100-
SOUTHCENTRAL MOUNTAINS

CITY           SKY/WX    TMP DP  RH WIND       PRES   REMARKS
RUIDOSO        MOCLDY    50  18  27 CALM      30.38R

$$
NMZ527>531-270100-
NORTHEAST HIGHLANDS/NORTHEAST PLAINS

CITY           SKY/WX    TMP DP  RH WIND       PRES   REMARKS
LAS VEGAS      CLEAR     44  28  53 SE9       30.36S
6HR MIN TEMP:  44; 6HR MAX TEMP:  57;

RATON          CLEAR     51  32  48 SW7       30.31S
6HR MIN TEMP:  51; 6HR MAX TEMP:  60;

CLAYTON        CLEAR     58  32  37 NW3       30.25S
6HR MIN TEMP:  58; 6HR MAX TEMP:  66;


$$
NMZ532>537-270100-
EASTCENTRAL PLAINS

CITY           SKY/WX    TMP DP  RH WIND       PRES   REMARKS
TUCUMCARI      CLEAR     58  37  45 S3        30.24R
6HR MIN TEMP:  51; 6HR MAX TEMP:  68;

CANNON AFB     PTCLDY    56  39  51 N6        30.25S
6HR MIN TEMP:  56; 6HR MAX TEMP:  65;

CLOVIS AIRPORT PTCLDY    55  39  54 N7        30.24S

$$
NMZ028-029-538-270100-
SOUTHEAST PLAINS

CITY           SKY/WX    TMP DP  RH WIND       PRES   REMARKS
ROSWELL        MOCLDY    57  36  45 SW7       30.25R
6HR MIN TEMP:  49; 6HR MAX TEMP:  63;

ARTESIA        MOCLDY    57  36  44 CALM      30.26R
CARLSBAD       MOCLDY    58  30  34 SW3       30.23S
6HR MIN TEMP:  52; 6HR MAX TEMP:  67;

HOBBS          CLEAR     59  28  31 CALM      30.24R


$$


USA.gov is the U.S. government's official web portal to all federal, state and local government web resources and services.